Regional Weather Roundup
Issued by NWS

Home | Current Version | Previous Version | Text Only | Print | Product List | Glossary On
Versions: 1 2 3 4 5 6 7 8 9 10 11 12 13 14 15 16 17 18 19 20 21 22 23 24 25 26 27 28 29 30 31 32 33 34 35 36 37 38 39 40 41 42 43 44 45 46 47 48 49 50
000
ASUS43 KLOT 232210
RWRIL

ILLINOIS REGIONAL WEATHER ROUNDUP
NATIONAL WEATHER SERVICE CHICAGO/ROMEOVILLE IL
500 PM CDT THU OCT 23 2014

NOTE: "FAIR" INDICATES FEW OR NO CLOUDS BELOW 12,000 FEET WITH NO
SIGNIFICANT WEATHER AND/OR OBSTRUCTIONS TO VISIBILITY.

* THESE STATIONS ARE NOT UNDER NWS QUALITY CONTROL. THEY ALSO MAY NOT
  REPORT WEATHER SUCH AS PRECIPITATION OR FOG.

ILZ001-002-007-009-015-016-024-232300-
NORTHWEST ILLINOIS

CITY           SKY/WX    TMP DP  RH WIND       PRES   REMARKS
MOLINE         CLOUDY    60  47  61 SW7       30.04R
STERLING*      CLOUDY    57  43  58 S6        30.05S
SAVANNA*       CLOUDY    55  49  82 CALM      30.04R
$$

ILZ003-004-008-010-011-017-018-232300-
NORTH CENTRAL ILLINOIS

CITY           SKY/WX    TMP DP  RH WIND       PRES   REMARKS
ROCKFORD       LGT RAIN  58  43  57 S14       30.07S
FREEPORT*      LGT RAIN  54  48  82 S5        30.06S
ROCHELLE*      CLOUDY    57  43  59 S10G16    30.06S
DE KALB*       CLOUDY    55  42  62 S12       30.07S
PERU*          CLOUDY    59  44  57 S12       30.07S
$$

ILZ005-006-012>014-019>023-232300-
NORTHEAST ILLINOIS

CITY           SKY/WX    TMP DP  RH WIND       PRES   REMARKS
CHICAGO-OHARE  CLOUDY    57  42  57 S9        30.08S
CHICAGO-MIDWAY CLOUDY    60  41  49 SW9       30.08F
AURORA         CLOUDY    58  41  53 S8        30.07F
LANSING*       CLOUDY    57  41  55 S7        30.10S
JOLIET*        CLOUDY    56  42  58 S6        30.08F
WAUKEGAN       CLOUDY    57  42  57 S9        30.05F
DUPAGE AIRPORT CLOUDY    57  42  57 S7        30.06F
KANKAKEE*      MOCLDY    57  43  59 S7        30.11R
WHEELING       CLOUDY    58  41  53 S10       30.08S
MORRIS*        CLOUDY    58  44  60 S6        30.06F
ROMEOVILLE*    CLOUDY    57  41  55 S7        30.08S
NORTHERLY ISL    N/A     59  39  47 SW9         N/A
$$

LMZ740>746-232300-
SOUTHERN LAKE MICHIGAN

STATION/POSITION SKY/WX   TEMP    WIND        PRES    VSBY  WAVE
                          AIR SEA DIR/SP/G                  HT/PER
                          (F)     (DEG/KT/KT) (MB)    (MI)  (FT/S)
SOUTHERN BUOY              54 54  170/ 14/ 16 1018.8F         2/ 4
WAUKEGAN HARBOR            58     190/ 11/ 12   N/A
HARRISON CRIB              58     180/ 12/ 15   N/A
BURNHAM HARBOR             58     180/  8/ 13   N/A
CALUMET HARBOR             59     180/ 10/ 13 1017.6R
MICHIGAN CITY              57     150/  6/  8   N/A
$$

ILZ025>027-034>036-040-047-049-050-058-095>099-232300-
WEST-CENTRAL ILLINOIS

CITY           SKY/WX    TMP DP  RH WIND       PRES   REMARKS
QUINCY         CLOUDY    57  51  80 S9        30.06F
GALESBURG*     CLOUDY    59  47  65 S12G18    30.04F
MACOMB*        CLOUDY    60  48  65 S10       30.08S
JACKSONVILLE*  CLOUDY    64  46  52 S6        30.07F
PITTSFIELD*    CLOUDY    59  53  79 W3        30.08S
$$

ILZ028>032-037-038-041>044-048-051>054-059>061-232300-
CENTRAL ILLINOIS

CITY           SKY/WX    TMP DP  RH WIND       PRES   REMARKS
PONTIAC        CLOUDY    60  42  52 S8        30.09F
BLOOMINGTON    CLOUDY    58  43  57 S12       30.10F
DECATUR        PTSUNNY   60  44  55 SW7       30.12R
PEORIA         CLOUDY    61  43  51 S13       30.07S
LACON*         CLOUDY    58  43  57 S7        30.06S
LINCOLN*       PTSUNNY   62  41  46 S7        30.08F
SPRINGFIELD    CLOUDY    62  44  51 S6        30.10S
TAYLORVILLE    MOSUNNY   59  43  55 S6        30.11S
$$

ILZ033-039-045-046-055>057-062-063-232300-
EAST-CENTRAL ILLINOIS

CITY           SKY/WX    TMP DP  RH WIND       PRES   REMARKS
CHAMPAIGN      CLOUDY    59  42  53 S7        30.10F
DANVILLE*      CLOUDY    57  42  57 S3        30.10S
RANTOUL*       CLOUDY    60  43  53 S8        30.10F
MATTOON        CLOUDY    58  43  57 S3        30.11F
PARIS*         CLOUDY    58  42  54 S3        30.13F
$$

ILZ079-100>102-232300-
SOUTHWEST ILLINOIS

CITY           SKY/WX    TMP DP  RH WIND       PRES   REMARKS
ALTON          CLOUDY    61  39  44 S5        30.11R
BELLEVILLE     PTSUNNY   62  47  57 E5        30.10F
CAHOKIA*       PTSUNNY   64  45  49 VRB5      30.10S
SPARTA*        CLOUDY    60  43  54 CALM      30.11F
$$

ILZ064>066-069>071-074>076-080>082-084>086-088>090-092>094-232300-
SOUTH-CENTRAL ILLINOIS

CITY           SKY/WX    TMP DP  RH WIND       PRES   REMARKS
CARBONDALE     CLOUDY    60  43  53 CALM      30.12F
CAIRO*         CLOUDY    60  44  56 CALM      30.14S
EFFINGHAM*     CLOUDY    60  40  48 CALM      30.12F
MT. VERNON     CLOUDY    61  45  55 SE3       30.13F
CENTRALIA*     CLOUDY    60  42  50 S5        30.11F
SALEM*         CLOUDY    62  46  55 SE3       30.12F
METROPOLIS*    CLOUDY    59  47  64 CALM      30.13S
$$

ILZ067-068-072-073-078-083-087-091-232300-
SOUTHEAST ILLINOIS

CITY           SKY/WX    TMP DP  RH WIND       PRES   REMARKS
LAWRENCEVILLE  CLOUDY    60  42  51 W3        30.14F
FLORA*         CLOUDY    59  42  52 CALM      30.13F
FAIRFIELD*     CLOUDY    60  42  53 S3        30.13S
HARRISBURG*    CLOUDY    60  43  54 CALM      30.15S
ROBINSON*      CLOUDY    62  43  50 W5        30.15S
CARMI*         CLOUDY    61  43  52 CALM      30.13F
$$

ABBREVIATIONS USED IN REMARKS
   TC - TEMPERATURE IN CELSIUS
  WCI - WIND CHILL INDEX
   HX - HEAT INDEX
  VSB - VISIBILITY
$$




USA.gov is the U.S. government's official web portal to all federal, state and local government web resources and services.